Regional Weather Roundup
Issued by NWS

Home | Current Version | Previous Version | Text Only | Print | Product List | Glossary On
Versions: 1 2 3 4 5 6 7 8 9 10 11 12 13 14 15 16 17 18 19 20 21 22 23 24 25 26 27 28 29 30 31 32 33 34 35 36 37 38 39 40 41 42 43 44 45 46 47 48 49 50
641
ASUS44 KBMX 300110
RWRAL

ALABAMA REGIONAL WEATHER ROUNDUP
NATIONAL WEATHER SERVICE BIRMINGHAM AL
800 PM CDT SUN MAY 29 2016

NOTE: "FAIR" INDICATES FEW OR NO CLOUDS BELOW 12,000 FEET
WITH NO SIGNIFICANT WEATHER AND/OR OBSTRUCTIONS TO VISIBILITY.

THE REMARK "TC" DENOTES TEMPERATURE IN DEGREES CELSIUS.

ALZ001>011-014-016>018-020-300200-
NORTH ALABAMA

CITY           SKY/WX    TMP DP  RH WIND       PRES   REMARKS
MUSCLE SHOALS  CLEAR     80  63  55 NW5       30.04S
HUNTSVILLE     PTCLDY    82  61  48 NW3       30.03S
DECATUR        CLEAR     78  65  63 CALM      30.03S
HALEYVILLE     FAIR      76  67  73 CALM      30.08R
GADSDEN        CLEAR     80  67  64 SW5       30.03R
$$

ALZ012-013-022-023-030>036-040>044-300200-
WEST CENTRAL ALABAMA

CITY           SKY/WX    TMP DP  RH WIND       PRES   REMARKS
TUSCALOOSA     CLEAR     81  67  62 CALM      30.02S
$$

ALZ015-024>027-033>036-040>044-300200-
CENTRAL ALABAMA

CITY           SKY/WX    TMP DP  RH WIND       PRES   REMARKS
BIRMINGHAM     PTCLDY    82  64  54 N5        30.06R
MONTGOMERY     CLOUDY    81  65  58 W6        30.01S
SHELBY CO ARPT PTCLDY    79  69  71 CALM      30.03S
MAXWELL AFB    CLEAR     83  69  63 SW2       30.00S
GREENVILLE     FAIR      80  68  66 CALM      30.01S
$$

ALZ019-021-028-029-037-038-045>048-300200-
EAST CENTRAL ALABAMA

CITY           SKY/WX    TMP DP  RH WIND       PRES   REMARKS
ANNISTON       CLEAR     77  65  66 W5        30.03S
ALEXANDER CITY CLEAR     80  70  72 CALM      30.04R
AUBURN         CLEAR    N/A N/A N/A NW3       30.04R
$$

ALZ051>064-300200-
SOUTHWEST ALABAMA

CITY           SKY/WX    TMP DP  RH WIND       PRES   REMARKS
MOBILE         PTCLDY    76  68  76 SW3       30.03S
BROOKLEY FIELD CLEAR     74  72  93 SW5       30.04R
EVERGREEN      CLEAR     78  69  73 CALM      30.02R
$$

ALZ049-050-065>069-300200-
SOUTHEAST ALABAMA

CITY           SKY/WX    TMP DP  RH WIND       PRES   REMARKS
DOTHAN         CLEAR     83  62  49 CALM      30.04S
OZARK          CLEAR     79  69  72 SW3       30.00S
TROY           CLEAR     80  67  64 CALM      30.02S
EUFAULA        FAIR      77  67  71 CALM      29.99S
$$




USA.gov is the U.S. government's official web portal to all federal, state and local government web resources and services.